Home > Weather > Arendal > Past weeks

Flag for Norway Past Weather in Arendal, Norway — Yesterday and Last 2 Weeks

Now
68 °F

Mild.


Feels Like: 68 °F
Forecast: 51 / 61 °F
Wind: 6 mph from Northwest

Location: Torungen Fyr

Current Time: Aug 27, 2016 at 3:38:36 PM

Latest Report: Aug 27, 2016 at 2:00 PM


Visibility: N/A

Pressure: 30.10 "Hg

Humidity: 46%

Dew Point: 46 °F

Location of ArendalLocation

Past Weather in Arendal — Graph

°F

Arendal Temperature Yesterday

Maximum temperature yesterday: 70 °F (at 5:00 PM)
Minimum temperature yesterday: 62 °F (at 11:00 PM)
Average temperature yesterday: 64 °F

High & Low Weather Summary for the Past Weeks

 TemperatureHumidityPressure
High70 °F (Aug 26, 5:00 PM)98% (Aug 26, 3:00 AM)30.27 "Hg (Aug 26, 3:00 AM)
Low55 °F (Aug 24, 6:00 AM)46% (Aug 27, 2:00 PM)29.71 "Hg (Aug 13, 12:00 AM)
Average62 °F82%30.00 "Hg
* Reported Aug 12 2:00 PM — Aug 27 2:00 PM, Arendal, Weather by CustomWeather, © 2016

Note: Actual official high and low records may vary slightly from our data, if they occured in-between our weather recording intervals... More about our weather records

Advertising

Arendal Weather History for the Previous 24 Hours

Scroll right to see more
 ConditionsComfort  
Time TempWeatherWind HumidityBarometerVisibility
2:00 PM
Sat, Aug 27
68 °FMild.6 mph46%30.10 "HgN/A
1:00 PM67 °FMild.7 mph50%30.10 "HgN/A
12:00 PM66 °FMild.8 mph56%30.09 "HgN/A
11:00 AM64 °FMild.7 mph61%30.08 "HgN/A
10:00 AM63 °FMild.8 mph66%30.06 "HgN/A
9:00 AM61 °FCool.8 mph73%30.06 "HgN/A
8:00 AM59 °FCool.8 mph85%30.04 "HgN/A
7:00 AM58 °FCool.10 mph88%30.02 "HgN/A
6:00 AM58 °FCool.9 mph89%30.01 "HgN/A
5:00 AM59 °FCool.13 mph88%30.00 "HgN/A
4:00 AM59 °FCool.12 mph85%29.99 "HgN/A
3:00 AM59 °FCool.12 mph82%29.99 "HgN/A
2:00 AM59 °FCool.12 mph82%29.98 "HgN/A
1:00 AM60 °FCool.12 mph82%29.96 "HgN/A
12:00 AM61 °FCool.12 mph83%29.94 "HgN/A
11:00 PM
Fri, Aug 26
62 °FCool.12 mph85%29.93 "HgN/A
10:00 PM62 °FCool.10 mph81%29.92 "HgN/A
9:00 PM63 °FMild.10 mph76%29.90 "HgN/A
8:00 PM65 °FMild.10 mph73%29.87 "HgN/A
6:00 PM69 °FMild.13 mph59%29.82 "HgN/A
5:00 PM70 °FMild.13 mph60%29.80 "HgN/A
4:00 PM67 °FMild.13 mph80%29.77 "HgN/A
3:00 PM65 °FMild.15 mph93%29.75 "HgN/A
Weather by CustomWeather, © 2016

See weather overviewHow to use our weather pages